Location: Beddau
(51.5575°N, 3.3561°W)
Time: 12:53:02
(UTC+00:00)

Cosmos 2219 Rocket - Pass Details

Date: 03 March 2021
Orbit: 826 x 848 km, 71.0° (Epoch: 17 April)

Event Time Altitude Azimuth Distance (km) Brightness Sun altitude
Rises 19:24:32 0° 171° (S) 3,355 5.1 -14.3°
Reaches altitude 10° 19:27:17 10° 159° (SSE) 2,428 4.3 -14.7°
Maximum altitude 19:31:50 27° 104° (ESE) 1,568 3.0 -15.4°
Drops below altitude 10° 19:36:25 10° 49° (NE) 2,452 4.2 -16.1°
Sets 19:39:12 0° 37° (NE) 3,394 5.1 -16.5°
